Location: Kumla
(59.1265°N, 15.1401°E)
Time: 18:33:45
(UTC+01:00)

Vanguard 1 Rocket - Pass Details

Date: 03 December 2023
Orbit: 654 x 4218 km, 34.3° (Epoch: 21 February)

Event Time Altitude Azimuth Distance (km) Brightness Sun altitude
Rises 08:18:33 0° 245° (WSW) 6,795 11.6 -1.9°
Reaches altitude 10° 08:25:55 10° 229° (SW) 4,963 11.1 -1.3°
Maximum altitude 08:32:37 16° 198° (SSW) 3,667 10.9 -0.6°
Drops below altitude 10° 08:37:36 10° 164° (SSE) 3,489 11.6 -0.2°
Sets 08:41:21 0° 142° (SE) 3,985 13.8 0.1°
